"startDT [UTC]","vpos","CH4 [ppm]","stdev(CH4) [ppm]","CO2 [ppm]","stdev(CO2) [ppm]","H2O_reported [%]","stdev(H2O_reported)","CavityPressure [torr]","CavityTemp [C]","OutletValve","CH4_dry [ppm]","CO2_dry [ppm]","DasTemp [C]","EtalonTemp [C]","WarmBoxTemp [C]","MPVPosition","T_ECpre [C]","T_EC1 [C]","T_EC2 [C]","p_inlet [hPa]","p_in [hPa]","p_out [hPa]","T_inlet [C]","RH_inlet [%]","dwpt_inlet [C]","T_vent [C]","RH_vent [%]","dwpt_vent [C]","flow_vent [l min-1]","flow_inlet [l min-1]","dwpt_sample [C]","T_room [C]"
2013-11-14 00:00:00,0.0,1.90906,0.00033,397.600,0.024,0.2133,0.0011,139.996,44.998,31646.54833,1.91307,398.628,32.840,45.057,44.999,0.00,0.12,-272.57,-272.63,-18,572,-2,20.4,6.6,-17.2,20.4,6.9,-16.7,5.73,2.54,-10.4,26.4
2013-11-14 00:01:00,0.0,1.90890,0.00041,397.567,0.026,0.2123,0.0036,140.005,44.998,31646.81411,1.91297,398.587,32.803,45.058,45.000,0.00,0.12,-272.57,-272.63,-19,572,-2,20.3,6.7,-17.2,20.4,6.9,-16.7,5.73,2.57,-10.4,26.4
2013-11-14 00:02:00,0.0,1.90877,0.00031,397.577,0.031,0.2110,0.0014,140.001,44.999,31642.62038,1.91278,398.595,32.753,45.059,45.000,0.00,0.12,-272.57,-272.63,-19,572,-2,20.3,6.7,-17.2,20.4,6.9,-16.7,5.73,2.59,-10.4,26.4
2013-11-14 00:03:00,0.0,1.90843,0.00026,397.542,0.036,0.2126,0.0007,140.006,44.999,31644.98547,1.91248,398.561,32.735,45.059,45.001,0.00,0.11,-272.57,-272.63,-18,572,-2,20.3,6.7,-17.2,20.4,6.9,-16.7,5.73,2.59,-10.5,26.3
2013-11-14 00:04:00,0.0,1.90882,0.00035,397.574,0.023,0.2117,0.0022,140.000,44.999,31640.60277,1.91278,398.595,32.689,45.059,45.001,0.00,0.12,-272.57,-272.63,-18,572,-2,20.3,6.7,-17.2,20.4,6.9,-16.7,5.73,2.57,-10.4,26.3
2013-11-14 00:05:00,0.0,1.90864,0.00041,397.487,0.124,0.2125,0.0012,140.004,44.999,31638.91330,1.91276,398.526,32.688,45.059,45.000,0.00,0.11,-272.57,-272.64,-18,572,-2,20.2,6.7,-17.3,20.4,6.9,-16.7,5.73,2.53,-10.4,26.2
2013-11-14 00:06:00,0.0,1.90815,0.00044,397.320,0.022,0.2125,0.0022,140.006,45.000,31639.89319,1.91213,398.337,32.630,45.058,45.000,0.00,0.12,-272.57,-272.63,-19,572,-2,20.2,6.7,-17.2,20.4,7.0,-16.7,5.73,2.51,-10.5,26.2
2013-11-14 00:07:00,0.0,1.90859,0.00024,397.464,0.047,0.2121,0.0009,140.006,44.999,31635.65357,1.91254,398.478,32.625,45.058,44.999,0.00,0.12,-272.56,-272.63,-18,572,-2,20.2,6.7,-17.2,20.4,7.0,-16.6,5.73,2.54,-10.4,26.2
2013-11-14 00:08:00,0.0,1.90835,0.00044,397.369,0.031,0.2131,0.0017,140.006,44.999,31634.91521,1.91250,398.400,32.610,45.058,45.000,0.00,0.12,-272.57,-272.63,-18,571,-2,20.2,6.7,-17.2,20.3,7.0,-16.7,5.73,2.57,-10.5,26.2
2013-11-14 00:09:00,0.0,1.90786,0.00017,397.301,0.022,0.2145,0.0006,139.998,45.000,31630.75315,1.91186,398.331,32.566,45.058,45.000,0.00,0.11,-272.57,-272.64,-18,571,-2,20.2,6.7,-17.2,20.3,7.0,-16.7,5.73,2.59,-10.5,26.2
2013-11-14 00:10:00,0.0,1.90765,0.00042,397.240,0.073,0.2123,0.0025,140.004,45.000,31632.52102,1.91166,398.261,32.584,45.059,45.000,0.00,0.12,-272.57,-272.63,-18,572,-2,20.2,6.7,-17.2,20.3,7.0,-16.7,5.73,2.59,-10.5,26.2
2013-11-14 00:11:00,0.0,1.90752,0.00053,397.286,0.039,0.2138,0.0018,140.001,45.000,31630.41128,1.91156,398.313,32.611,45.059,45.000,0.00,0.12,-272.57,-272.64,-18,572,-2,20.2,6.7,-17.2,20.3,7.0,-16.6,5.73,2.57,-10.5,26.2
2013-11-14 00:12:00,0.0,1.90766,0.00033,397.274,0.022,0.2132,0.0010,139.998,45.000,31625.67325,1.91174,398.301,32.606,45.059,45.000,0.00,0.12,-272.57,-272.64,-19,571,-2,20.2,6.7,-17.2,20.3,7.0,-16.6,5.73,2.53,-10.5,26.1
2013-11-14 00:13:00,0.0,1.90765,0.00044,397.284,0.041,0.2121,0.0012,140.003,45.000,31626.34891,1.91167,398.306,32.612,45.059,45.000,0.00,0.12,-272.57,-272.63,-18,571,-2,20.2,6.7,-17.2,20.3,7.0,-16.7,5.73,2.51,-10.5,26.1
2013-11-14 00:14:00,0.0,1.90781,0.00015,397.257,0.010,0.2135,0.0011,140.003,45.000,31626.31768,1.91181,398.279,32.620,45.059,45.000,0.00,0.12,-272.57,-272.63,-18,571,-2,20.2,6.7,-17.2,20.3,7.0,-16.7,5.73,2.53,-10.5,26.1
2013-11-14 00:15:00,0.0,1.90797,0.00043,397.322,0.030,0.2129,0.0010,139.997,45.000,31622.23076,1.91191,398.342,32.616,45.059,45.000,0.00,0.11,-272.57,-272.64,-18,571,-2,20.2,6.7,-17.2,20.3,7.0,-16.6,5.73,2.57,-10.5,26.1
2013-11-14 00:16:00,0.0,1.90793,0.00018,397.288,0.021,0.2140,0.0008,140.005,45.000,31623.91565,1.91201,398.315,32.631,45.059,45.000,0.00,0.12,-272.57,-272.63,-18,571,-2,20.2,6.7,-17.2,20.3,7.0,-16.7,5.73,2.59,-10.5,26.2
2013-11-14 00:17:00,0.0,1.90795,0.00035,397.312,0.047,0.2116,0.0015,139.995,45.001,31621.61166,1.91195,398.333,32.665,45.060,45.001,0.00,0.12,-272.57,-272.63,-18,571,-2,20.2,6.7,-17.2,20.3,7.0,-16.7,5.73,2.58,-10.5,26.2
2013-11-14 00:18:00,0.0,1.90759,0.00029,397.305,0.025,0.2126,0.0013,140.003,45.001,31626.91538,1.91157,398.324,32.729,45.060,45.002,0.00,0.11,-272.57,-272.63,-18,571,-2,20.2,6.7,-17.2,20.3,7.0,-16.7,5.73,2.57,-10.5,26.2
2013-11-14 00:19:00,0.0,1.90749,0.00034,397.335,0.023,0.2120,0.0015,140.002,45.001,31628.17995,1.91154,398.349,32.768,45.061,45.003,0.00,0.11,-272.57,-272.64,-18,571,-2,20.3,6.7,-17.2,20.3,7.0,-16.7,5.73,2.56,-10.5,26.2
2013-11-14 00:20:00,0.0,1.90766,0.00022,397.291,0.037,0.2135,0.0012,140.000,45.002,31629.34951,1.91167,398.320,32.827,45.061,45.003,0.00,0.12,-272.57,-272.63,-18,571,-2,20.3,6.7,-17.2,20.3,7.0,-16.7,5.73,2.54,-10.6,26.2
2013-11-14 00:21:00,0.0,1.90742,0.00034,397.261,0.033,0.2119,0.0015,140.006,45.002,31631.98237,1.91149,398.279,32.881,45.062,45.003,0.00,0.11,-272.57,-272.63,-18,571,-2,20.3,6.7,-17.2,20.4,6.9,-16.7,5.73,2.53,-10.5,26.3
2013-11-14 00:22:00,0.0,1.90774,0.00022,397.263,0.026,0.2114,0.0018,140.000,45.002,31630.93427,1.91168,398.274,32.949,45.061,45.003,0.00,0.11,-272.57,-272.64,-18,572,-2,20.3,6.7,-17.2,20.4,6.9,-16.7,5.73,2.53,-10.5,26.3
2013-11-14 00:23:00,0.0,1.90779,0.00015,397.288,0.032,0.2116,0.0009,140.001,45.002,31632.50074,1.91175,398.304,33.022,45.061,45.002,0.00,0.12,-272.57,-272.64,-19,572,-2,20.4,6.6,-17.2,20.4,6.9,-16.7,5.73,2.53,-10.6,26.3
2013-11-14 00:24:00,0.0,1.90812,0.00029,397.285,0.024,0.2125,0.0017,139.998,45.002,31632.51139,1.91206,398.308,33.096,45.061,45.002,0.00,0.12,-272.57,-272.64,-19,572,-2,20.4,6.6,-17.3,20.4,6.9,-16.7,5.73,2.54,-10.6,26.3
2013-11-14 00:25:00,0.0,1.90820,0.00041,397.289,0.015,0.2116,0.0020,140.006,45.002,31635.69448,1.91228,398.306,33.158,45.061,45.002,0.00,0.11,-272.57,-272.63,-18,571,-2,20.4,6.6,-17.3,20.4,6.9,-16.8,5.73,2.55,-10.6,26.3
2013-11-14 00:26:00,0.0,1.90769,0.00030,397.237,0.032,0.2114,0.0014,140.002,45.002,31638.77500,1.91175,398.259,33.223,45.060,45.001,0.00,0.11,-272.57,-272.64,-18,571,-2,20.4,6.6,-17.3,20.4,6.9,-16.8,5.73,2.56,-10.6,26.3
2013-11-14 00:27:00,0.0,1.90781,0.00020,397.206,0.013,0.2118,0.0008,140.004,45.002,31642.24386,1.91172,398.223,33.282,45.060,45.001,0.00,0.12,-272.57,-272.63,-18,572,-2,20.4,6.6,-17.3,20.4,6.9,-16.7,5.73,2.57,-10.6,26.4
2013-11-14 00:28:00,0.0,1.90796,0.00042,397.196,0.012,0.2123,0.0012,140.005,45.002,31642.25340,1.91194,398.213,33.322,45.059,45.001,0.00,0.11,-272.57,-272.63,-18,572,-2,20.4,6.6,-17.3,20.4,6.9,-16.7,5.73,2.58,-10.6,26.4
2013-11-14 00:29:00,0.0,1.90779,0.00037,397.225,0.027,0.2115,0.0026,140.000,45.001,31640.87138,1.91184,398.243,33.375,45.059,45.001,0.00,0.12,-272.57,-272.64,-18,572,-2,20.4,6.6,-17.3,20.4,6.9,-16.7,5.73,2.57,-10.5,26.4
2013-11-14 00:30:00,0.0,1.90758,0.00029,397.128,0.056,0.2124,0.0020,140.008,45.001,31643.76388,1.91160,398.146,33.423,45.059,45.001,0.00,0.11,-272.57,-272.63,-18,572,-2,20.4,6.6,-17.2,20.4,6.9,-16.7,5.73,2.54,-10.6,26.4
2013-11-14 00:31:00,0.0,1.90748,0.00059,397.167,0.041,0.2111,0.0013,140.006,45.001,31647.06189,1.91160,398.192,33.492,45.059,45.001,0.00,0.11,-272.57,-272.63,-18,572,-2,20.4,6.6,-17.3,20.4,6.9,-16.7,5.73,2.56,-10.5,26.4
2013-11-14 00:32:00,0.0,1.90739,0.00023,397.133,0.033,0.2119,0.0012,139.999,45.001,31647.50326,1.91129,398.148,33.508,45.059,45.001,0.00,0.12,-272.57,-272.63,-18,572,-2,20.4,6.6,-17.3,20.4,6.9,-16.7,5.73,2.55,-10.6,26.4
2013-11-14 00:33:00,0.0,1.90743,0.00015,397.119,0.014,0.2113,0.0012,140.006,45.001,31649.99054,1.91143,398.135,33.557,45.060,45.001,0.00,0.11,-272.57,-272.63,-18,572,-2,20.4,6.6,-17.3,20.5,6.9,-16.7,5.73,2.54,-10.6,26.4
2013-11-14 00:34:00,0.0,1.90750,0.00020,397.094,0.039,0.2112,0.0017,140.004,45.001,31650.53949,1.91148,398.111,33.585,45.059,45.001,0.00,0.12,-272.57,-272.63,-18,572,-2,20.4,6.6,-17.3,20.5,6.9,-16.7,5.73,2.53,-10.5,26.5
2013-11-14 00:35:00,0.0,1.90740,0.00020,397.051,0.058,0.2118,0.0017,140.005,45.001,31653.45661,1.91148,398.071,33.625,45.059,45.001,0.00,0.11,-272.57,-272.63,-18,572,-2,20.5,6.6,-17.2,20.5,6.9,-16.7,5.73,2.52,-10.6,26.5
2013-11-14 00:36:00,0.0,1.90724,0.00035,397.067,0.045,0.2123,0.0010,139.997,45.001,31652.58805,1.91129,398.084,33.666,45.059,45.001,0.00,0.11,-272.57,-272.63,-18,572,-2,20.5,6.6,-17.2,20.5,6.9,-16.6,5.73,2.52,-10.5,26.5
2013-11-14 00:37:00,0.0,1.90710,0.00051,397.100,0.017,0.2137,0.0019,140.005,45.001,31657.39925,1.91112,398.122,33.688,45.059,45.001,0.00,0.11,-272.57,-272.63,-18,572,-2,20.5,6.6,-17.2,20.5,6.9,-16.6,5.73,2.53,-10.5,26.5
2013-11-14 00:38:00,0.0,1.90749,0.00051,397.070,0.041,0.2141,0.0023,140.001,45.001,31655.95994,1.91144,398.099,33.717,45.059,45.001,0.00,0.11,-272.57,-272.64,-18,572,-2,20.5,6.6,-17.1,20.5,6.9,-16.6,5.73,2.54,-10.5,26.5
2013-11-14 00:39:00,0.0,1.90722,0.00027,397.029,0.016,0.2144,0.0018,139.999,45.001,31657.22159,1.91125,398.057,33.747,45.059,45.001,0.00,0.11,-272.57,-272.63,-18,572,-2,20.5,6.6,-17.1,20.6,6.9,-16.6,5.73,2.55,-10.5,26.6
2013-11-14 00:40:00,0.0,1.90703,0.00016,397.009,0.061,0.2151,0.0014,140.002,45.001,31657.74402,1.91113,398.040,33.768,45.059,45.000,0.00,0.12,-272.57,-272.63,-19,572,-2,20.5,6.7,-17.1,20.6,7.0,-16.5,5.73,2.56,-10.5,26.6
2013-11-14 00:41:00,0.0,1.90719,0.00024,397.043,0.017,0.2174,0.0018,140.002,45.001,31659.54599,1.91127,398.087,33.806,45.059,45.000,0.00,0.11,-272.57,-272.63,-18,572,-2,20.6,6.7,-17.1,20.6,7.0,-16.5,5.73,2.57,-10.5,26.6
2013-11-14 00:42:00,0.0,1.90767,0.00028,397.053,0.031,0.2159,0.0012,139.999,45.001,31658.37525,1.91166,398.090,33.817,45.059,45.000,0.00,0.11,-272.57,-272.63,-18,572,-2,20.6,6.7,-17.0,20.6,7.0,-16.5,5.73,2.57,-10.5,26.6
2013-11-14 00:43:00,0.0,1.90704,0.00049,397.015,0.032,0.2151,0.0010,140.006,45.001,31663.35649,1.91125,398.052,33.867,45.058,45.000,0.00,0.11,-272.57,-272.63,-18,573,-2,20.6,6.7,-17.0,20.6,7.0,-16.5,5.73,2.56,-10.5,26.6
2013-11-14 00:44:00,0.0,1.90734,0.00062,396.991,0.036,0.2154,0.0007,139.998,45.001,31660.53911,1.91128,398.021,33.875,45.058,45.000,0.00,0.11,-272.57,-272.63,-19,573,-2,20.6,6.7,-17.0,20.6,7.0,-16.5,5.73,2.55,-10.5,26.6
2013-11-14 00:45:00,0.0,1.90726,0.00024,396.997,0.028,0.2166,0.0008,140.000,45.000,31662.89964,1.91137,398.040,33.898,45.059,45.001,0.00,0.12,-272.57,-272.63,-19,573,-2,20.6,6.7,-17.0,20.6,7.0,-16.5,5.73,2.54,-10.5,26.6
2013-11-14 00:46:00,0.0,1.90769,0.00041,397.049,0.034,0.2167,0.0019,139.999,45.000,31662.03309,1.91173,398.084,33.936,45.059,45.000,0.00,0.12,-272.57,-272.63,-19,573,-2,20.6,6.6,-17.0,20.6,7.0,-16.5,5.73,2.53,-10.5,26.6
2013-11-14 00:47:00,0.0,1.90732,0.00024,397.092,0.027,0.2148,0.0014,139.998,45.000,31663.98714,1.91149,398.118,33.938,45.058,45.000,0.00,0.11,-272.57,-272.64,-19,573,-2,20.6,6.7,-17.0,20.6,7.0,-16.5,5.73,2.53,-10.5,26.6
2013-11-14 00:48:00,0.0,1.90751,0.00036,397.115,0.041,0.2151,0.0010,140.004,45.000,31667.99619,1.91146,398.155,33.972,45.058,45.000,0.00,0.11,-272.57,-272.63,-18,573,-2,20.6,6.6,-17.1,20.6,6.9,-16.5,5.73,2.52,-10.5,26.6
2013-11-14 00:49:00,0.0,1.90727,0.00047,397.055,0.006,0.2159,0.0011,139.998,45.000,31666.81917,1.91143,398.091,33.991,45.058,45.000,0.00,0.11,-272.57,-272.63,-18,573,-2,20.6,6.6,-17.1,20.6,6.9,-16.5,5.73,2.53,-10.5,26.6
2013-11-14 00:50:00,0.0,1.90766,0.00024,397.074,0.045,0.2137,0.0025,139.995,45.000,31665.55890,1.91164,398.102,34.000,45.058,45.000,0.00,0.11,-272.57,-272.63,-18,573,-2,20.6,6.6,-17.1,20.6,6.9,-16.5,5.73,2.53,-10.5,26.7
2013-11-14 00:51:00,0.0,1.90747,0.00031,397.067,0.021,0.2139,0.0015,140.006,45.000,31669.79954,1.91149,398.090,34.000,45.058,45.000,0.00,0.12,-272.56,-272.63,-18,573,-2,20.7,6.6,-17.1,20.6,6.9,-16.6,5.73,2.54,-10.5,26.7
2013-11-14 00:52:00,0.0,1.90767,0.00022,397.091,0.048,0.2145,0.0012,140.007,45.000,31668.96938,1.91172,398.127,34.013,45.058,45.000,0.00,0.11,-272.57,-272.63,-19,573,-2,20.7,6.6,-17.1,20.6,6.9,-16.6,5.73,2.55,-10.5,26.7
2013-11-14 00:53:00,0.0,1.90748,0.00030,397.011,0.025,0.2154,0.0016,139.998,45.000,31669.27863,1.91151,398.044,34.034,45.058,45.000,0.00,0.11,-272.56,-272.64,-18,573,-2,20.7,6.6,-17.1,20.7,6.9,-16.6,5.73,2.56,-10.5,26.7
2013-11-14 00:54:00,0.0,1.90771,0.00049,397.032,0.024,0.2141,0.0014,140.007,45.000,31674.18681,1.91190,398.060,34.061,45.058,45.000,0.00,0.12,-272.56,-272.63,-19,573,-2,20.7,6.6,-17.1,20.7,6.9,-16.6,5.73,2.57,-10.5,26.8
2013-11-14 00:55:00,0.0,1.90692,0.00037,396.914,0.022,0.2151,0.0014,140.000,45.000,31673.63329,1.91088,397.946,34.055,45.058,45.000,0.00,0.12,-272.57,-272.63,-19,573,-2,20.7,6.6,-17.1,20.7,6.9,-16.5,5.73,2.57,-10.5,26.8
2013-11-14 00:56:00,0.0,1.90724,0.00042,396.975,0.032,0.2165,0.0017,140.003,45.000,31676.43692,1.91134,398.013,34.063,45.058,45.000,0.00,0.11,-272.57,-272.63,-18,573,-2,20.7,6.6,-17.1,20.7,6.9,-16.5,5.73,2.56,-10.5,26.8
2013-11-14 00:57:00,0.0,1.90719,0.00022,396.930,0.017,0.2147,0.0011,139.999,45.000,31674.79665,1.91124,397.967,34.063,45.058,45.000,0.00,0.12,-272.57,-272.63,-18,573,-2,20.7,6.6,-17.1,20.7,6.9,-16.6,5.73,2.55,-10.5,26.8
2013-11-14 00:58:00,0.0,1.90741,0.00017,396.919,0.039,0.2156,0.0009,140.004,45.000,31677.38373,1.91145,397.950,34.066,45.058,45.000,0.00,0.12,-272.56,-272.63,-18,573,-2,20.7,6.6,-17.0,20.7,6.9,-16.5,5.73,2.55,-10.5,26.9
2013-11-14 00:59:00,0.0,1.90755,0.00021,396.949,0.018,0.2154,0.0016,139.997,45.000,31675.70596,1.91161,397.984,34.097,45.058,45.000,0.00,0.12,-272.57,-272.63,-18,574,-2,20.7,6.6,-17.1,20.7,6.9,-16.5,5.73,2.54,-10.5,26.8
2013-11-14 01:00:00,0.0,1.90736,0.00028,396.921,0.033,0.2152,0.0016,140.002,45.000,31678.65278,1.91148,397.957,34.125,45.058,45.000,0.00,0.12,-272.57,-272.63,-19,573,-3,20.7,6.6,-17.1,20.7,6.9,-16.6,5.73,2.53,-10.5,26.8
2013-11-14 01:01:00,0.0,1.90740,0.00040,396.910,0.027,0.2140,0.0010,140.002,45.000,31679.25019,1.91145,397.937,34.125,45.058,45.000,0.00,0.12,-272.57,-272.63,-19,573,-2,20.8,6.6,-17.1,20.7,6.9,-16.5,5.73,2.52,-10.5,26.9
2013-11-14 01:02:00,0.0,1.90696,0.00017,396.923,0.013,0.2167,0.0014,139.999,45.000,31682.08544,1.91108,397.957,34.125,45.058,45.000,0.00,0.12,-272.57,-272.63,-19,573,-2,20.7,6.6,-17.1,20.8,6.9,-16.5,5.73,2.52,-10.5,26.9
2013-11-14 01:03:00,0.0,1.90681,0.00018,396.897,0.023,0.2162,0.0014,139.999,45.000,31680.11145,1.91085,397.937,34.124,45.058,45.000,0.00,0.12,-272.57,-272.63,-18,573,-2,20.8,6.6,-17.0,20.8,6.9,-16.5,5.73,2.52,-10.5,26.8
2013-11-14 01:04:00,0.0,1.90696,0.00027,396.857,0.026,0.2164,0.0015,140.000,45.000,31679.68275,1.91103,397.896,34.110,45.057,44.999,0.00,0.12,-272.57,-272.63,-18,573,-2,20.7,6.6,-17.1,20.8,6.9,-16.5,5.73,2.55,-10.4,26.8
2013-11-14 01:05:00,0.0,1.90683,0.00022,396.847,0.018,0.2170,0.0018,139.999,44.999,31677.25172,1.91102,397.890,34.045,45.056,44.998,0.00,0.11,-272.57,-272.63,-19,574,-2,20.7,6.6,-17.1,20.7,6.9,-16.5,5.73,2.60,-10.4,26.8
2013-11-14 01:06:00,0.0,1.90708,0.00047,396.874,0.034,0.2165,0.0026,140.003,44.998,31677.12083,1.91103,397.912,33.982,45.055,44.996,0.00,0.11,-272.57,-272.63,-19,574,-2,20.7,6.6,-17.1,20.7,6.9,-16.5,5.73,2.59,-10.5,26.8
2013-11-14 01:07:00,0.0,1.90705,0.00035,396.828,0.016,0.2172,0.0021,139.999,44.998,31673.76551,1.91115,397.871,33.855,45.054,44.996,0.00,0.12,-272.57,-272.63,-19,573,-2,20.6,6.6,-17.1,20.7,6.9,-16.5,5.73,2.52,-10.5,26.7
2013-11-14 01:08:00,0.0,1.90712,0.00029,396.846,0.030,0.2170,0.0030,140.000,44.997,31670.54019,1.91128,397.887,33.725,45.053,44.995,0.00,0.11,-272.56,-272.63,-18,573,-2,20.6,6.6,-17.1,20.6,6.9,-16.5,5.73,2.50,-10.5,26.7
2013-11-14 01:09:00,0.0,1.90706,0.00034,396.843,0.021,0.2171,0.0016,140.007,44.997,31671.35576,1.91112,397.884,33.600,45.053,44.995,0.00,0.12,-272.57,-272.64,-19,573,-2,20.6,6.7,-17.0,20.6,7.0,-16.5,5.73,2.56,-10.5,26.7
2013-11-14 01:10:00,0.0,1.90692,0.00025,396.868,0.052,0.2162,0.0012,139.998,44.996,31666.43029,1.91106,397.901,33.443,45.053,44.995,0.00,0.11,-272.57,-272.64,-19,573,-2,20.5,6.7,-17.0,20.6,7.0,-16.5,5.73,2.61,-10.5,26.6
2013-11-14 01:11:00,0.0,1.90711,0.00026,396.889,0.023,0.2151,0.0010,140.002,44.996,31664.11924,1.91110,397.923,33.314,45.054,44.996,0.00,0.12,-272.57,-272.63,-19,572,-2,20.5,6.7,-17.0,20.5,7.0,-16.5,5.73,2.58,-10.5,26.6
2013-11-14 01:12:00,0.0,1.90723,0.00021,396.944,0.017,0.2149,0.0020,140.002,44.996,31659.90928,1.91132,397.971,33.176,45.055,44.997,0.00,0.12,-272.57,-272.63,-18,573,-2,20.4,6.7,-17.1,20.5,7.0,-16.6,5.73,2.52,-10.5,26.5
2013-11-14 01:13:00,0.0,1.90731,0.00043,396.974,0.031,0.2142,0.0018,140.001,44.997,31655.16736,1.91128,398.001,33.041,45.055,44.997,0.00,0.12,-272.57,-272.63,-19,573,-2,20.4,6.7,-17.1,20.4,7.0,-16.6,5.73,2.51,-10.5,26.4
2013-11-14 01:14:00,0.0,1.90709,0.00031,396.957,0.033,0.2145,0.0016,140.000,44.997,31649.98650,1.91122,397.991,32.910,45.056,44.998,0.00,0.12,-272.57,-272.63,-19,572,-2,20.4,6.7,-17.2,20.4,7.0,-16.6,5.73,2.54,-10.5,26.4
2013-11-14 01:15:00,0.0,1.90722,0.00036,396.901,0.008,0.2137,0.0019,140.002,44.997,31648.28688,1.91121,397.929,32.825,45.057,44.999,0.00,0.11,-272.57,-272.63,-19,572,-2,20.3,6.7,-17.1,20.4,7.0,-16.6,5.73,2.58,-10.5,26.4
2013-11-14 01:16:00,0.0,1.90702,0.00027,396.919,0.033,0.2149,0.0023,139.993,44.998,31641.52441,1.91115,397.947,32.757,45.058,44.999,0.00,0.11,-272.57,-272.63,-18,572,-2,20.3,6.7,-17.1,20.4,7.0,-16.6,5.73,2.60,-10.5,26.3
2013-11-14 01:17:00,0.0,1.90727,0.00042,396.908,0.022,0.2133,0.0017,140.003,44.998,31642.85607,1.91123,397.931,32.685,45.058,44.999,0.00,0.11,-272.57,-272.63,-18,572,-2,20.3,6.7,-17.2,20.4,7.0,-16.6,5.73,2.58,-10.5,26.3
2013-11-14 01:18:00,0.0,1.90745,0.00020,396.973,0.041,0.2158,0.0008,140.001,44.998,31640.63226,1.91151,398.001,32.639,45.058,45.000,0.00,0.12,-272.57,-272.63,-18,572,-2,20.3,6.7,-17.2,20.4,7.0,-16.7,5.73,2.57,-10.5,26.3
2013-11-14 01:19:00,0.0,1.90743,0.00015,397.027,0.018,0.2124,0.0020,140.008,44.999,31640.64423,1.91150,398.046,32.611,45.059,45.000,0.00,0.12,-272.57,-272.63,-19,572,-2,20.3,6.7,-17.2,20.4,7.0,-16.7,5.73,2.54,-10.5,26.3
2013-11-14 01:20:00,0.0,1.90737,0.00039,397.023,0.022,0.2134,0.0015,139.993,44.999,31634.87488,1.91137,398.046,32.563,45.059,45.000,0.00,0.11,-272.57,-272.64,-19,572,-2,20.3,6.7,-17.2,20.4,6.9,-16.7,5.73,2.53,-10.5,26.2
2013-11-14 01:21:00,0.0,1.90717,0.00023,397.009,0.018,0.2124,0.0017,140.005,44.999,31638.37708,1.91119,398.032,32.563,45.059,45.000,0.00,0.11,-272.57,-272.63,-18,572,-2,20.3,6.7,-17.3,20.4,6.9,-16.7,5.73,2.53,-10.5,26.2
2013-11-14 01:22:00,0.0,1.90791,0.00037,397.054,0.028,0.2098,0.0014,140.001,45.000,31636.39115,1.91188,398.061,32.543,45.059,45.000,0.00,0.11,-272.57,-272.63,-18,572,-2,20.3,6.6,-17.3,20.4,6.9,-16.7,5.73,2.55,-10.5,26.2
2013-11-14 01:23:00,0.0,1.90710,0.00017,397.040,0.007,0.2098,0.0015,140.006,45.000,31635.33984,1.91113,398.046,32.521,45.059,45.000,0.00,0.12,-272.57,-272.63,-18,572,-2,20.2,6.6,-17.3,20.4,6.9,-16.8,5.73,2.57,-10.5,26.2
2013-11-14 01:24:00,0.0,1.90727,0.00054,397.048,0.000,0.2090,0.0024,140.004,45.000,31632.76125,1.91099,398.054,32.540,45.059,45.000,0.00,0.11,-272.57,-272.64,-18,572,-2,20.3,6.6,-17.3,20.4,6.9,-16.8,5.73,2.58,-10.5,26.2
2013-11-14 01:25:00,0.0,1.90741,0.00013,397.088,0.021,0.2093,0.0016,139.998,45.000,31631.98059,1.91142,398.085,32.540,45.059,45.001,0.00,0.12,-272.57,-272.63,-18,572,-2,20.3,6.6,-17.3,20.4,6.9,-16.8,5.73,2.59,-10.5,26.2
2013-11-14 01:26:00,0.0,1.90745,0.00026,397.098,0.020,0.2091,0.0014,139.997,45.001,31632.26417,1.91134,398.107,32.563,45.060,45.001,0.00,0.11,-272.57,-272.63,-18,572,-2,20.3,6.6,-17.4,20.4,6.9,-16.8,5.73,2.58,-10.6,26.2
2013-11-14 01:27:00,0.0,1.90759,0.00026,397.076,0.027,0.2103,0.0016,140.002,45.001,31632.49007,1.91153,398.085,32.577,45.060,45.001,0.00,0.11,-272.57,-272.63,-18,572,-2,20.3,6.6,-17.4,20.4,6.9,-16.9,5.73,2.56,-10.6,26.2
2013-11-14 01:28:00,0.0,1.90775,0.00036,397.045,0.022,0.2092,0.0005,139.999,45.001,31631.87076,1.91172,398.052,32.625,45.060,45.001,0.00,0.12,-272.57,-272.63,-18,572,-2,20.3,6.6,-17.4,20.4,6.8,-16.9,5.73,2.53,-10.6,26.2
2013-11-14 01:29:00,0.0,1.90810,0.00038,397.077,0.024,0.2079,0.0011,140.007,45.001,31631.86330,1.91191,398.071,32.625,45.060,45.001,0.00,0.11,-272.57,-272.63,-18,572,-2,20.2,6.6,-17.4,20.4,6.8,-16.9,5.73,2.52,-10.6,26.2
2013-11-14 01:30:00,0.0,1.90800,0.00036,397.121,0.029,0.2072,0.0021,139.996,45.001,31628.35586,1.91184,398.108,32.628,45.059,45.000,0.00,0.11,-272.57,-272.63,-19,572,-2,20.2,6.5,-17.5,20.4,6.8,-16.9,5.73,2.53,-10.6,26.1
2013-11-14 01:31:00,0.0,1.90775,0.00051,397.128,0.025,0.2078,0.0029,140.000,45.000,31629.13545,1.91194,398.133,32.645,45.059,45.000,0.00,0.11,-272.57,-272.64,-19,571,-2,20.2,6.5,-17.5,20.3,6.8,-17.0,5.73,2.57,-10.6,26.1
2013-11-14 01:32:00,0.0,1.90803,0.00049,397.150,0.029,0.2063,0.0017,139.995,45.000,31624.61559,1.91174,398.134,32.647,45.058,44.999,0.00,0.11,-272.57,-272.63,-18,571,-2,20.2,6.5,-17.5,20.4,6.8,-16.9,5.73,2.59,-10.6,26.1
2013-11-14 01:33:00,0.0,1.90824,0.00020,397.138,0.028,0.2091,0.0018,140.003,45.000,31627.86363,1.91224,398.146,32.667,45.058,44.999,0.00,0.32,-270.92,-272.12,-18,572,-2,20.2,6.5,-17.5,20.4,6.8,-16.9,5.42,2.60,-13.2,26.1
2013-11-14 01:34:00,0.0,1.90806,0.00027,397.066,0.015,0.2065,0.0019,140.000,45.000,31626.67102,1.91189,398.063,32.670,45.058,44.999,0.00,0.11,-272.57,-272.63,-18,572,-2,20.2,6.5,-17.5,20.3,6.8,-16.9,5.73,2.56,-10.6,26.1
2013-11-14 01:35:00,0.0,1.90839,0.00033,397.084,0.028,0.2073,0.0006,140.003,45.000,31625.12708,1.91234,398.078,32.688,45.058,44.999,0.00,0.12,-272.57,-272.63,-18,572,-2,20.2,6.6,-17.5,20.4,6.8,-16.9,5.73,2.52,-10.6,26.2
2013-11-14 01:36:00,0.0,1.90831,0.00032,397.114,0.007,0.2071,0.0007,140.004,45.000,31625.24827,1.91221,398.105,32.688,45.058,45.000,0.00,0.11,-272.57,-272.64,-18,571,-2,20.2,6.6,-17.4,20.4,6.8,-16.9,5.73,2.52,-10.6,26.2
2013-11-14 01:37:00,0.0,1.90811,0.00028,397.090,0.038,0.2083,0.0011,140.007,45.000,31628.01846,1.91207,398.092,32.688,45.059,45.000,0.00,0.11,-272.57,-272.64,-18,571,-2,20.2,6.6,-17.4,20.4,6.9,-16.8,5.73,2.54,-10.6,26.2
2013-11-14 01:38:00,0.0,1.90773,0.00041,397.094,0.012,0.2086,0.0015,139.993,45.000,31624.38830,1.91167,398.093,32.700,45.059,45.000,0.00,0.12,-272.57,-272.63,-18,572,-2,20.3,6.6,-17.4,20.4,6.8,-16.9,5.73,2.58,-10.6,26.2
2013-11-14 01:39:00,0.0,1.90795,0.00041,397.089,0.012,0.2097,0.0015,140.006,45.000,31628.92747,1.91191,398.094,32.745,45.059,45.000,0.00,0.12,-272.57,-272.63,-18,572,-2,20.2,6.6,-17.4,20.4,6.9,-16.8,5.73,2.60,-10.6,26.1
2013-11-14 01:40:00,0.0,1.90839,0.00009,397.114,0.015,0.2093,0.0022,140.006,45.000,31625.83680,1.91226,398.119,32.748,45.059,45.000,0.00,0.11,-272.57,-272.63,-18,572,-2,20.3,6.6,-17.4,20.3,6.9,-16.8,5.73,2.58,-10.6,26.1
2013-11-14 01:41:00,0.0,1.90829,0.00032,397.132,0.021,0.2098,0.0034,139.998,45.000,31623.99552,1.91224,398.133,32.762,45.059,45.001,0.00,0.11,-272.57,-272.63,-19,571,-2,20.3,6.6,-17.4,20.4,6.9,-16.9,5.73,2.55,-10.6,26.1
2013-11-14 01:42:00,0.0,1.90853,0.00021,397.143,0.013,0.2065,0.0011,140.000,45.001,31625.50759,1.91244,398.137,32.812,45.059,45.001,0.00,0.11,-272.57,-272.63,-18,571,-2,20.3,6.6,-17.4,20.4,6.8,-16.9,5.73,2.52,-10.6,26.1
2013-11-14 01:43:00,0.0,1.90847,0.00052,397.130,0.010,0.2075,0.0025,140.001,45.001,31626.82311,1.91243,398.127,32.822,45.059,45.001,0.00,0.11,-272.57,-272.63,-18,572,-2,20.3,6.5,-17.5,20.4,6.8,-16.9,5.73,2.52,-10.6,26.2
2013-11-14 01:44:00,0.0,1.90866,0.00018,397.164,0.016,0.2071,0.0010,140.005,45.001,31628.01922,1.91253,398.155,32.873,45.060,45.001,0.00,0.11,-272.57,-272.63,-18,572,-2,20.3,6.5,-17.5,20.4,6.8,-17.0,5.73,2.54,-10.6,26.2
2013-11-14 01:45:00,0.0,1.90834,0.00020,397.146,0.028,0.2071,0.0019,139.998,45.001,31629.21554,1.91235,398.143,32.926,45.060,45.002,0.00,0.11,-272.57,-272.63,-18,572,-2,20.3,6.5,-17.5,20.4,6.8,-17.0,5.73,2.56,-10.6,26.2